Tracking 28052 objects as of 22-Sep-2023
HD Live streaming from Space Station
objects crossing your sky now

STARLINK-5091

Track STARLINK-5091 now!
10-day predictions
STARLINK-5091 is classified as:


NORAD ID: 54873
Int'l Code: 2022-177BF
Perigee: 565.2 km
Apogee: 567.2 km
Inclination: 43.0 °
Period: 95.8 minutes
Semi major axis: 6937 km
RCS: Unknown
Launch date: December 28, 2022
Source: United States (US)
Launch site: AIR FORCE EASTERN TEST RANGE (AFETR)
Your satellite tracking list
Your tracking list is empty




NASA's NSSDC Master Catalog

Two Line Element Set (TLE):
1 54873U 22177BF  23264.86885831  .00000014  00000-0  16106-4 0  9993
2 54873  43.0047 329.2889 0001494 272.1144  87.9528 15.02541806 41755
Source of the keplerian elements: AFSPC